EW2804 Weather Reports


time (UTC)temp
F
wind
direction
speed
knots
gust
knots
rain 1hr
in
rain 24hr
in
rain mn
in
humidity
%
barometer
mb
20220524020119 73 112 0.0 0.0 0.00 0.02 0.02 76 1011.9
20220524015053 73 127 0.0 3.5 0.00 0.02 0.02 76 1012.0
20220524014035 73 190 0.0 6.1 0.00 0.02 0.02 75 1011.8
20220524013001 73 131 0.0 6.1 0.00 0.02 0.02 75 1011.8
20220524011959 74 130 0.0 4.3 0.00 0.02 0.02 75 1011.6
20220524011013 74 119 0.0 1.7 0.00 0.02 0.02 74 1011.4
20220524010000 74 100 0.0 0.9 0.00 0.02 0.02 74 1011.7
20220524005018 74 116 0.9 5.2 0.00 0.02 0.02 73 1011.7
20220524003957 74 128 0.0 5.2 0.00 0.02 0.02 73 1011.7
20220524003001 74 132 0.9 4.3 0.00 0.02 0.02 73 1011.8
20220524001935 75 130 0.0 4.3 0.00 0.02 0.02 72 1011.8
20220524000926 75 191 0.0 2.6 0.00 0.02 0.02 72 1012.2
20220523235900 75 81 0.9 4.3 0.00 0.02 0.02 72 1012.1
20220523234919 75 355 0.9 4.3 0.00 0.02 0.02 72 1012.0
20220523233929 75 38 0.0 4.3 0.00 0.02 0.02 72 1012.0
20220523232935 75 99 0.0 0.0 0.00 0.02 0.02 73 1012.2
20220523231902 75 115 0.0 5.2 0.00 0.02 0.02 72 1012.4
20220523230901 75 0 0.0 5.2 0.00 0.02 0.02 73 1012.4
20220523225846 76 113 0.0 4.3 0.00 0.02 0.02 72 1012.5
20220523224901 76 24 0.0 2.6 0.00 0.02 0.02 73 1012.6
20220523223838 76 57 0.0 3.5 0.00 0.02 0.02 73 1012.8
20220523222814 76 17 0.0 3.5 0.00 0.02 0.02 71 1012.8
20220523221823 76 79 0.0 0.0 0.00 0.02 0.02 72 1013.0
20220523220758 76 92 0.0 2.6 0.00 0.02 0.02 71 1013.3
20220523215729 76 34 0.0 1.7 0.00 0.02 0.02 72 1013.4
20220523214744 76 134 0.0 0.0 0.00 0.02 0.02 71 1013.3
20220523213741 76 173 0.0 1.7 0.00 0.02 0.02 71 1013.2
20220523212713 76 90 0.9 6.1 0.00 0.02 0.02 71 1013.0
20220523211709 76 111 0.9 6.1 0.00 0.02 0.02 71 1013.0
20220523210655 75 194 0.0 2.6 0.00 0.02 0.02 71 1013.3
20220523205653 75 159 0.0 0.0 0.00 0.02 0.02 72 1013.4
20220523204632 75 153 0.0 5.2 0.00 0.02 0.02 72 1013.6
20220523203649 75 102 0.9 4.3 0.00 0.02 0.02 72 1013.6
20220523202615 75 117 0.9 3.5 0.00 0.02 0.02 74 1013.8
20220523201637 74 113 0.0 0.9 0.00 0.02 0.02 75 1014.0
20220523200659 75 113 0.0 2.6 0.00 0.02 0.02 74 1014.2
20220523195655 75 154 0.9 5.2 0.00 0.02 0.02 74 1014.4
20220523194648 75 121 0.9 5.2 0.00 0.02 0.02 73 1014.5
20220523193612 75 131 1.7 7.8 0.00 0.02 0.02 74 1014.6
20220523192539 75 113 2.6 8.7 0.00 0.02 0.02 75 1014.5
20220523191539 74 80 2.6 8.7 0.00 0.02 0.02 75 1014.1
20220523190512 74 109 2.6 8.7 0.00 0.02 0.02 75 1014.6
20220523185511 73 144 2.6 8.7 0.00 0.02 0.02 78 1014.9
20220523184454 73 182 1.7 7.0 0.00 0.02 0.02 81 1015.3
20220523183455 71 192 1.7 7.0 0.00 0.02 0.02 81 1015.7
20220523182509 70 241 0.9 7.0 0.00 0.02 0.02 82 1016.1
20220523181519 69 122 0.9 6.1 0.00 0.02 0.02 84 1016.3
20220523180541 68 97 0.9 6.1 0.00 0.02 0.02 85 1016.6
20220523175548 68 0 0.9 6.1 0.00 0.02 0.02 87 1016.8
20220523174554 67 139 0.9 6.1 0.00 0.02 0.02 86 1017.0
20220523173616 67 103 0.9 4.3 0.00 0.02 0.02 89 1017.0
20220523172557 67 140 0.9 4.3 0.00 0.02 0.02 88 1017.0
20220523171603 67 91 0.0 4.3 0.00 0.02 0.02 90 1017.0
20220523170542 66 103 0.0 2.6 0.00 0.02 0.02 90 1017.1
20220523165547 66 0 0.0 0.0 0.00 0.02 0.02 89 1017.3
20220523164542 67 123 0.0 0.0 0.00 0.02 0.02 90 1017.5
20220523163506 66 173 0.0 0.0 0.00 0.02 0.02 91 1017.6
20220523162435 66 123 0.0 0.0 0.00 0.02 0.02 92 1017.9
20220523161414 65 209 0.0 0.0 0.00 0.02 0.02 92 1017.9
20220523160411 65 153 0.0 0.0 0.00 0.02 0.02 92 1018.0
20220523155419 65 0 0.0 0.0 0.00 0.02 0.02 92 1018.0
20220523154418 65 142 0.0 0.0 0.00 0.02 0.02 93 1018.2
20220523153423 64 126 0.0 0.0 0.00 0.02 0.02 94 1018.3
20220523152445 64 192 0.0 0.0 0.00 0.02 0.02 94 1018.3
20220523151419 64 59 0.0 0.0 0.00 0.02 0.02 95 1018.5
20220523150401 63 59 0.0 0.0 0.00 0.02 0.02 94 1018.6
20220523145415 63 59 0.0 0.0 0.00 0.02 0.02 94 1018.9
20220523144422 63 57 0.0 0.0 0.00 0.02 0.02 94 1019.0
20220523143410 63 57 0.0 0.0 0.00 0.02 0.02 94 1019.1
20220523142427 62 57 0.0 0.0 0.00 0.02 0.02 94 1019.0
20220523141439 62 57 0.0 0.0 0.00 0.02 0.02 94 1018.9
20220523140500 62 57 0.0 0.0 0.00 0.02 0.02 94 1019.1
20220523135445 62 57 0.0 0.0 0.00 0.02 0.02 94 1019.2
20220523134410 61 57 0.0 0.0 0.00 0.02 0.02 94 1019.0
20220523133347 61 57 0.0 0.0 0.00 0.02 0.02 94 1019.0
20220523132319 61 0 0.0 0.0 0.00 0.02 0.02 94 1019.1
20220523131333 61 0 0.0 0.0 0.00 0.02 0.02 94 1019.3
20220523130334 60 30 0.0 0.0 0.00 0.02 0.02 94 1019.4
20220523125350 60 30 0.0 0.0 0.00 0.02 0.02 94 1019.2
20220523124338 60 30 0.0 0.0 0.00 0.02 0.02 94 1019.3
20220523123316 60 30 0.0 0.0 0.00 0.02 0.02 93 1019.4
20220523122327 60 30 0.0 0.0 0.00 0.02 0.02 93 1019.4
20220523121300 60 34 0.0 0.0 0.00 0.02 0.02 94 1019.4
20220523120251 60 34 0.0 0.0 0.00 0.02 0.02 93 1019.1
20220523115234 60 34 0.0 0.0 0.00 0.02 0.02 93 1019.0
20220523114201 60 26 0.0 1.7 0.00 0.02 0.02 93 1018.9
20220523113138 60 26 0.0 0.0 0.00 0.02 0.02 93 1018.8
20220523112128 60 27 0.0 0.9 0.00 0.02 0.02 93 1018.6
20220523111137 60 24 0.0 0.0 0.00 0.02 0.02 93 1018.6
20220523110134 59 29 0.0 1.7 0.00 0.02 0.02 93 1018.6
20220523105137 59 134 0.0 0.9 0.00 0.02 0.02 93 1018.4
20220523104152 59 65 0.0 1.7 0.00 0.02 0.02 93 1018.3
20220523103138 59 46 0.0 2.6 0.00 0.02 0.02 93 1018.5
20220523102144 59 45 0.0 1.7 0.00 0.02 0.02 93 1018.4
20220523101124 59 61 0.0 2.6 0.00 0.02 0.02 93 1018.4
20220523100111 59 61 0.0 2.6 0.00 0.02 0.02 93 1018.2
20220523095056 59 55 0.0 2.6 0.00 0.02 0.02 93 1018.2
20220523094029 59 46 0.0 1.7 0.00 0.02 0.02 93 1018.4
20220523093048 59 71 0.0 2.6 0.00 0.02 0.02 93 1018.5
20220523092050 59 94 0.0 1.7 0.00 0.02 0.02 93 1018.5
20220523091014 59 52 0.0 3.5 0.00 0.02 0.02 93 1018.7
20220523090033 59 63 0.0 3.5 0.00 0.02 0.02 93 1018.8
20220523085049 59 38 0.0 2.6 0.00 0.02 0.02 93 1018.9
20220523084044 59 327 0.0 2.6 0.00 0.02 0.02 93 1019.1
20220523083029 59 48 0.0 1.7 0.00 0.02 0.02 93 1019.2
20220523082049 59 40 0.0 2.6 0.00 0.02 0.02 93 1019.4
20220523081053 59 5 0.0 1.7 0.00 0.02 0.02 93 1019.5
20220523080101 59 36 0.0 1.7 0.00 0.02 0.02 92 1019.6
20220523075055 59 32 0.0 0.9 0.00 0.02 0.02 93 1019.7
20220523074055 59 17 0.0 0.0 0.00 0.01 0.01 92 1019.8
20220523073110 59 5 0.0 0.9 0.00 0.01 0.01 92 1020.0
20220523072125 59 345 0.0 0.0 0.00 0.01 0.01 92 1020.2
20220523071108 59 30 0.0 1.7 0.00 0.00 0.01 92 1020.3
20220523070108 59 355 0.0 3.5 0.00 0.00 0.00 92 1020.3
20220523065059 59 5 0.0 3.5 0.00 0.00 0.00 91 1020.4
20220523064045 60 16 0.0 1.7 0.00 0.00 0.00 91 1020.3
20220523063052 60 0 0.0 0.0 0.00 0.00 0.00 90 1020.1
20220523062041 60 0 0.0 1.7 0.00 0.00 0.00 90 1020.0
20220523061043 60 16 0.0 1.7 0.00 0.00 0.00 89 1019.8
20220523060028 60 22 0.0 0.0 0.00 0.00 0.00 89 1020.0
20220523055022 60 49 0.0 2.6 0.00 0.00 0.00 88 1020.3
20220523053946 60 32 0.0 2.6 0.00 0.00 0.00 87 1020.1
20220523052943 60 109 0.0 3.5 0.00 0.00 0.00 86 1020.0
20220523051945 61 111 0.0 3.5 0.00 0.00 0.00 86 1020.0
20220523050934 61 92 0.0 3.5 0.00 0.00 0.00 85 1020.0
20220523045935 61 126 0.0 3.5 0.00 0.00 0.00 85 1020.1
20220523044925 61 59 0.0 2.6 0.00 0.00 0.00 84 1020.2
20220523043910 61 69 0.0 3.5 0.00 0.00 0.00 83 1020.1
20220523042833 61 341 0.0 2.6 0.00 0.00 0.00 83 1020.2
20220523041816 61 31 0.9 3.5 0.00 0.00 0.00 83 1020.2
20220523040832 61 119 0.0 6.1 0.00 0.00 0.00 82 1020.2
20220523035836 62 86 0.0 6.1 0.00 0.00 0.00 82 1020.3
20220523034837 62 57 0.0 2.6 0.00 0.00 0.00 82 1020.3
20220523033823 62 57 0.0 2.6 0.00 0.00 0.00 82 1020.4
20220523032842 62 18 0.0 3.5 0.00 0.00 0.00 81 1020.5
20220523031837 61 109 0.0 3.5 0.00 0.00 0.00 81 1020.7
20220523030812 62 37 0.0 2.6 0.00 0.00 0.00 81 1020.4
20220523025809 62 45 0.0 3.5 0.00 0.00 0.00 80 1020.3
20220523024803 62 53 0.9 5.2 0.00 0.00 0.00 80 1020.2
20220523023801 62 99 0.0 5.2 0.00 0.00 0.00 79 1020.3
20220523022741 62 85 0.9 5.2 0.00 0.00 0.00 79 1020.3
20220523021718 62 39 1.7 7.0 0.00 0.00 0.00 79 1020.4